XE1DM Weather Reports


time (UTC)temp
C
wind
direction
speed
KPH
gust
KPH
rain 1hr
cm
rain 24hr
cm
rain mn
cm
humidity
%
barometer
mb
20260504004542 17 79 8.0 20.9 0.00 0.28 0.00 68 1012.3
20260504003046 18 156 6.4 17.7 0.00 0.28 0.00 63 1011.6
20260504001556 18 64 14.5 29.0 0.00 0.28 0.00 59 1011.0
20260504000040 18 29 22.5 33.8 0.00 0.28 0.00 65 1010.6
20260503234540 17 54 19.3 32.2 0.00 0.28 0.00 67 1010.6
20260503233039 18 71 16.1 29.0 0.00 0.28 0.00 66 1010.5
20260503231547 18 56 20.9 32.2 0.00 0.28 0.00 65 1010.2
20260503230038 20 32 16.1 27.4 0.00 0.28 0.00 63 1010.4
20260503224538 19 46 16.1 32.2 0.00 0.28 0.00 64 1010.3
20260503223042 19 41 25.7 38.6 0.00 0.28 0.00 63 1010.1
20260503221537 20 64 19.3 32.2 0.00 0.28 0.00 63 1010.0
20260503220038 21 54 17.7 30.6 0.00 0.28 0.00 60 1010.2
20260503214540 21 76 17.7 29.0 0.00 0.28 0.00 59 1010.0
20260503213046 22 63 14.5 24.1 0.00 0.28 0.00 58 1010.2
20260503211525 22 70 11.3 29.0 0.00 0.28 0.00 57 1010.5
20260503210019 22 89 12.9 32.2 0.00 0.28 0.00 57 1010.7
20260503204516 21 90 9.7 25.7 0.00 0.28 0.00 58 1010.9
20260503203021 22 67 9.7 24.1 0.00 0.28 0.00 60 1011.1
20260503201510 22 45 12.9 22.5 0.00 0.28 0.00 56 1011.3
20260503200005 22 75 8.0 25.7 0.00 0.28 0.00 57 1011.6
20260503194504 22 81 11.3 20.9 0.00 0.28 0.00 58 1012.1
20260503193101 21 57 9.7 17.7 0.00 0.28 0.00 58 1012.3
20260503191606 22 359 12.9 22.5 0.00 0.28 0.00 56 1012.4
20260503190058 22 154 4.8 19.3 0.00 0.28 0.00 48 1012.4
20260503184621 22 204 6.4 12.9 0.00 0.28 0.00 51 1012.7
20260503183059 21 59 4.8 12.9 0.00 0.28 0.00 52 1013.0
20260503181551 21 134 3.2 14.5 0.00 0.28 0.00 55 1013.3
20260503180048 20 163 4.8 14.5 0.00 0.28 0.00 59 1013.7
20260503174602 20 221 3.2 11.3 0.00 0.28 0.00 57 1014.0
20260503173048 20 237 3.2 8.0 0.00 0.28 0.00 61 1014.3
20260503171542 20 152 6.4 12.9 0.00 0.28 0.00 63 1014.4
20260503081555 14 87 6.4 14.5 0.00 0.28 0.00 76 1012.1
20260503071601 13 86 0.0 6.4 0.00 0.28 0.00 77 1012.2
20260503054534 15 70 9.7 16.1 0.00 0.28 0.28 74 1012.0
20260503053026 15 84 12.9 22.5 0.00 0.28 0.28 72 1011.6
20260503051536 15 73 11.3 24.1 0.00 0.28 0.28 74 1011.5
20260503050026 15 47 12.9 24.1 0.00 0.28 0.28 74 1011.3
20260503044525 15 48 12.9 24.1 0.00 0.28 0.28 75 1011.4
20260503043024 15 35 12.9 24.1 0.00 0.28 0.28 75 1011.5
20260503041529 15 56 14.5 25.7 0.00 0.28 0.28 75 1011.2
20260503040023 15 52 14.5 27.4 0.00 0.28 0.28 77 1011.4
20260503034523 15 62 17.7 33.8 0.00 0.28 0.28 76 1011.2
20260503033022 14 68 12.9 27.4 0.03 0.28 0.28 77 1011.5
20260503031520 14 35 17.7 33.8 0.28 0.28 0.28 78 1011.1
20260503030022 13 91 22.5 35.4 0.28 0.28 0.28 81 1010.6
20260503024515 13 83 27.4 43.5 0.28 0.28 0.28 82 1010.0
20260503023012 13 72 19.3 32.2 0.25 0.25 0.25 83 1009.6
20260503021512 14 50 20.9 33.8 0.00 0.00 0.00 76 1009.5
20260503020011 13 37 20.9 43.5 0.00 0.00 0.00 79 1009.7
20260503014509 14 89 20.9 37.0 0.00 0.00 0.00 78 1009.0
20260503013020 14 64 20.9 37.0 0.00 0.00 0.00 79 1009.1
20260503011506 13 92 22.5 45.1 0.00 0.00 0.00 81 1008.4
20260503010003 13 54 22.5 40.2 0.00 0.00 0.00 82 1008.2